Location: Newark
(44.6028°N, 124.0883°W)
Time: 02:01:31
(UTC+00:00)

A-11 Canister half - All Passes

Search period start: 23 October 2019 00:00
Search period end: 02 November 2019 00:00
Orbit: 1514 x 1686 km, 47.2° (Epoch: 21 October)

Date Brightness Start Highest point End Pass type
(mag) Time Alt. Az. Time Alt. Az. Time Alt. Az.
23 Oct - 06:31:01 10° SE 06:33:52 11° ESE 06:36:42 10° ESE night (unlit)
23 Oct - 08:27:37 10° SSW 08:36:55 44° SE 08:45:58 10° ENE visible
23 Oct - 10:31:21 10° WSW 10:41:24 89° SSE 10:51:06 10° ENE visible
23 Oct - 12:36:56 10° W 12:46:50 77° N 12:56:21 10° E visible
23 Oct - 14:42:20 10° WNW 14:51:58 73° SSW 15:01:14 10° SE daylight
23 Oct - 16:48:08 10° WNW 16:55:42 28° SW 17:03:09 10° S daylight
24 Oct - 06:10:02 10° SE 06:11:04 10° ESE 06:12:06 10° ESE night (unlit)
24 Oct - 08:04:51 10° SSW 08:14:02 42° SE 08:23:00 10° ENE visible
24 Oct - 10:08:23 10° WSW 10:18:27 87° SSE 10:28:11 10° ENE visible
24 Oct - 12:13:57 10° W 12:23:52 77° N 12:33:25 10° E visible
24 Oct - 14:19:23 10° WNW 14:29:03 76° SSW 14:38:23 10° SE daylight
24 Oct - 16:25:04 10° WNW 16:32:53 30° SW 16:40:33 10° S daylight
25 Oct - 07:42:05 10° SSW 07:51:10 40° SE 08:00:02 10° ENE visible
25 Oct - 09:45:25 10° WSW 09:55:30 85° SSE 10:05:15 10° ENE visible
25 Oct - 11:50:57 10° W 12:00:55 77° N 12:10:29 10° E visible
25 Oct - 13:56:24 10° WNW 14:06:09 78° SSW 14:15:31 10° ESE visible
25 Oct - 16:02:02 10° WNW 16:10:05 32° SW 16:17:57 10° SSE daylight
26 Oct - 07:19:20 10° SSW 07:28:17 37° SE 07:37:03 10° ENE visible
26 Oct - 09:22:27 10° WSW 09:32:34 82° SSE 09:42:20 10° ENE visible
26 Oct - 11:27:57 10° W 11:37:56 77° N 11:47:33 10° E visible
26 Oct - 13:33:27 10° WNW 13:43:14 81° SSW 13:52:38 10° ESE visible
26 Oct - 15:38:59 10° WNW 15:47:15 34° SW 15:55:17 10° SSE daylight
27 Oct - 06:56:37 10° SSW 07:05:25 35° SE 07:14:03 10° ENE night (unlit)
27 Oct - 08:59:31 10° WSW 09:09:37 80° SSE 09:19:25 10° ENE visible
27 Oct - 11:04:57 10° W 11:14:58 77° N 11:24:37 10° E visible
27 Oct - 13:10:29 10° WNW 13:20:19 83° SSW 13:29:46 10° ESE visible
27 Oct - 15:15:58 10° WNW 15:24:25 36° SW 15:32:38 10° SSE daylight
28 Oct - 06:33:55 10° SSW 06:42:33 33° SE 06:51:02 10° ENE night (unlit)
28 Oct - 08:36:35 10° WSW 08:46:41 78° SSE 08:56:29 10° ENE visible
28 Oct - 10:41:56 10° W 10:52:00 77° N 11:01:40 10° E visible
28 Oct - 12:47:30 10° WNW 12:57:23 85° SSW 13:06:52 10° ESE visible
28 Oct - 14:52:57 10° WNW 15:01:34 39° SW 15:09:57 10° SSE daylight
29 Oct - 06:11:14 10° S 06:19:42 31° SE 06:28:01 10° ENE night (unlit)
29 Oct - 08:13:39 10° SW 08:23:44 75° SSE 08:33:34 10° ENE visible
29 Oct - 10:18:56 10° W 10:29:01 77° N 10:38:44 10° E visible
29 Oct - 12:24:32 10° WNW 12:34:27 87° SSW 12:43:58 10° ESE visible
29 Oct - 14:29:56 10° WNW 14:38:44 41° SW 14:47:15 10° SSE daylight
30 Oct - 05:48:34 10° S 05:56:51 30° SE 06:05:00 10° ENE night (unlit)
30 Oct - 07:50:43 10° SW 08:00:48 73° SSE 08:10:38 10° ENE visible
30 Oct - 09:55:57 10° W 10:06:03 78° N 10:15:48 10° E visible
30 Oct - 12:01:33 10° WNW 12:11:31 89° SSW 12:21:05 10° ESE visible
30 Oct - 14:06:56 10° WNW 14:15:53 43° SW 14:24:32 10° SSE visible
30 Oct - 16:17:01 10° WSW 16:18:42 11° WSW 16:20:21 10° SW daylight
31 Oct - 05:25:56 10° S 05:34:00 28° SE 05:41:56 10° ENE night (unlit)
31 Oct - 07:27:48 10° SW 07:37:52 70° SSE 07:47:42 10° ENE visible
31 Oct - 09:32:56 10° W 09:43:05 78° N 09:52:51 10° E visible
31 Oct - 11:38:35 10° WNW 11:48:34 89° NNE 11:58:10 10° ESE visible
31 Oct - 13:43:56 10° WNW 13:53:02 46° SW 14:01:49 10° SSE visible
31 Oct - 15:52:50 10° WSW 15:55:55 12° WSW 15:59:00 10° SW daylight
01 Nov - 05:03:21 10° S 05:11:09 26° SE 05:18:52 10° E night (unlit)
01 Nov - 07:04:54 10° SW 07:14:56 68° SSE 07:24:46 10° ENE night (unlit)
01 Nov - 09:09:56 10° W 09:20:05 79° N 09:29:55 10° E visible
01 Nov - 11:15:36 10° WNW 11:25:38 87° NNE 11:35:16 10° ESE visible
01 Nov - 13:20:57 10° WNW 13:30:10 49° SW 13:39:04 10° SSE visible
01 Nov - 15:29:08 10° W 15:33:08 13° WSW 15:37:08 10° SSW daylight
